EW0139 Weather Reports


time (UTC)temp
F
wind
direction
speed
knots
gust
knots
rain 1hr
in
rain 24hr
in
rain mn
in
humidity
%
barometer
mb
20260905055240 67 279 8.7 9.6 0.00 0.00 0.00 40 1008.2
20260905053748 68 315 0.9 6.1 0.00 0.00 0.00 39 1008.2
20260905052252 69 278 2.6 9.6 0.00 0.00 0.00 38 1008.2
20260905050740 69 286 5.2 5.2 0.00 0.00 0.00 38 1008.0
20260905045243 71 282 5.2 11.3 0.00 0.00 0.00 37 1008.3
20260905043808 71 283 7.8 11.3 0.00 0.00 0.00 37 1007.8
20260905042258 71 304 7.8 12.2 0.00 0.00 0.00 37 1008.1
20260905040743 72 294 10.4 13.0 0.00 0.00 0.00 37 1008.1
20260905035313 72 288 7.8 10.4 0.00 0.00 0.00 37 1008.4
20260905033743 74 298 9.6 13.0 0.00 0.00 0.00 36 1008.1
20260905032253 74 305 4.3 7.0 0.00 0.00 0.00 35 1008.1
20260905030740 75 298 8.7 8.7 0.00 0.00 0.00 35 1007.9
20260905025244 77 296 5.2 9.6 0.00 0.00 0.00 34 1007.8
20260905023750 79 292 8.7 12.2 0.00 0.00 0.00 33 1007.6
20260905022320 81 288 12.2 13.9 0.00 0.00 0.00 32 1007.4
20260905020742 82 294 8.7 17.4 0.00 0.00 0.00 31 1007.0
20260905015247 84 285 10.4 17.4 0.00 0.00 0.00 30 1006.6
20260905013754 83 284 10.4 10.4 0.00 0.00 0.00 32 1006.6
20260905012258 86 122 0.0 0.9 0.00 0.00 0.00 28 1006.2
20260905010803 90 122 0.0 0.0 0.00 0.00 0.00 27 1006.2
20260905005255 92 122 0.0 0.9 0.00 0.00 0.00 25 1005.8
20260905003742 92 122 0.0 2.6 0.00 0.00 0.00 26 1005.7
20260905002254 93 122 1.7 3.5 0.00 0.00 0.00 24 1005.5